K6OUA-11 Weather Reports


time (UTC)temp
C
wind
direction
speed
KPH
gust
KPH
rain 1hr
cm
rain 24hr
cm
rain mn
cm
humidity
%
barometer
mb
20170329205209 31 247 9.7 11.3 0.00 0.00 0.00 25 1010.7
20170329204907 31 235 6.4 9.7 0.00 0.00 0.00 24 1010.8
20170329204606 31 247 8.0 14.5 0.00 0.00 0.00 24 1010.7
20170329204305 31 217 6.4 20.9 0.00 0.00 0.00 23 1010.8
20170329203703 31 270 8.0 14.5 0.00 0.00 0.00 19 1010.9
20170329203401 31 237 4.8 14.5 0.00 0.00 0.00 19 1010.8
20170329203100 31 306 4.8 9.7 0.00 0.00 0.00 20 1010.9
20170329202759 31 0 9.7 9.7 0.00 0.00 0.00 18 1011.0
20170329202458 31 315 6.4 9.7 0.00 0.00 0.00 18 1011.0
20170329202157 31 351 8.0 11.3 0.00 0.00 0.00 20 1011.0
20170329201856 31 328 11.3 11.3 0.00 0.00 0.00 19 1011.0
20170329201555 31 323 4.8 14.5 0.00 0.00 0.00 20 1011.1
20170329201254 31 305 4.8 12.9 0.00 0.00 0.00 20 1011.1
20170329200953 31 303 1.6 8.0 0.00 0.00 0.00 21 1011.1
20170329200652 30 13 4.8 16.1 0.00 0.00 0.00 18 1011.1
20170329200351 30 157 1.6 9.7 0.00 0.00 0.00 21 1011.0
20170329200050 30 4 9.7 9.7 0.00 0.00 0.00 20 1011.2
20170329195749 30 33 11.3 11.3 0.00 0.00 0.00 20 1011.1
20170329195448 30 7 11.3 19.3 0.00 0.00 0.00 18 1011.1
20170329195146 30 0 11.3 16.1 0.00 0.00 0.00 18 1011.0
20170329194847 30 324 8.0 17.7 0.00 0.00 0.00 19 1011.2
20170329194546 30 351 14.5 24.1 0.00 0.00 0.00 18 1011.2
20170329194243 30 45 8.0 24.1 0.00 0.00 0.00 19 1011.3
20170329193944 30 54 12.9 20.9 0.00 0.00 0.00 19 1011.2
20170329193339 30 357 6.4 12.9 0.00 0.00 0.00 22 1011.3
20170329193038 29 105 9.7 14.5 0.00 0.00 0.00 21 1011.3
20170329192737 29 92 9.7 22.5 0.00 0.00 0.00 20 1011.3
20170329192437 29 90 11.3 22.5 0.00 0.00 0.00 19 1011.3
20170329192137 29 103 8.0 20.9 0.00 0.00 0.00 20 1011.2
20170329191834 29 60 12.9 14.5 0.00 0.00 0.00 20 1011.3
20170329191536 29 83 12.9 14.5 0.00 0.00 0.00 22 1011.4
20170329191232 29 27 9.7 14.5 0.00 0.00 0.00 20 1011.4
20170329190931 29 355 11.3 11.3 0.00 0.00 0.00 21 1011.5
20170329190630 29 38 6.4 17.7 0.00 0.00 0.00 21 1011.4
20170329190328 28 87 14.5 19.3 0.00 0.00 0.00 20 1011.3
20170329190030 28 67 11.3 17.7 0.00 0.00 0.00 21 1011.4
20170329185728 28 357 8.0 17.7 0.00 0.00 0.00 20 1011.6
20170329185426 28 65 6.4 12.9 0.00 0.00 0.00 22 1011.7
20170329185127 28 96 6.4 19.3 0.00 0.00 0.00 22 1011.7
20170329184823 28 85 11.3 20.9 0.00 0.00 0.00 21 1011.7
20170329184522 28 78 17.7 20.9 0.00 0.00 0.00 21 1011.6
20170329184222 28 54 12.9 17.7 0.00 0.00 0.00 21 1011.7
20170329183922 28 83 12.9 17.7 0.00 0.00 0.00 22 1011.8
20170329183619 28 47 8.0 14.5 0.00 0.00 0.00 22 1011.9
20170329183317 27 92 9.7 16.1 0.00 0.00 0.00 22 1011.8
20170329182716 27 78 24.1 24.1 0.00 0.00 0.00 21 1011.7
20170329182113 27 78 11.3 22.5 0.00 0.00 0.00 22 1011.9
20170329181812 27 96 6.4 12.9 0.00 0.00 0.00 22 1011.9
20170329181514 27 96 3.2 22.5 0.00 0.00 0.00 22 1011.9
20170329180909 27 65 9.7 19.3 0.00 0.00 0.00 22 1012.0
20170329180608 27 85 14.5 22.5 0.00 0.00 0.00 21 1011.7
20170329180307 27 58 12.9 17.7 0.00 0.00 0.00 22 1011.9
20170329180006 27 77 6.4 22.5 0.00 0.00 0.00 22 1011.8
20170329175704 27 72 22.5 22.5 0.00 0.00 0.00 22 1011.9
20170329175403 27 19 9.7 14.5 0.00 0.00 0.00 23 1011.9
20170329175102 27 83 14.5 14.5 0.00 0.00 0.00 22 1011.9
20170329174801 27 90 8.0 9.7 0.00 0.00 0.00 23 1011.8
20170329174500 27 94 3.2 12.9 0.00 0.00 0.00 24 1011.7
20170329174159 27 119 3.2 16.1 0.00 0.00 0.00 23 1011.8
20170329173557 27 85 4.8 14.5 0.00 0.00 0.00 22 1011.9
20170329173256 27 72 11.3 17.7 0.00 0.00 0.00 23 1011.7
20170329172955 27 83 14.5 14.5 0.00 0.00 0.00 23 1011.6
20170329172653 27 67 4.8 14.5 0.00 0.00 0.00 22 1011.9
20170329172352 26 92 6.4 17.7 0.00 0.00 0.00 23 1011.9
20170329172051 26 110 8.0 17.7 0.00 0.00 0.00 23 1011.9
20170329171750 26 142 1.6 9.7 0.00 0.00 0.00 24 1012.0
20170329171450 26 67 3.2 17.7 0.00 0.00 0.00 23 1012.0
20170329171148 26 40 11.3 11.3 0.00 0.00 0.00 23 1011.9
20170329170847 26 38 4.8 12.9 0.00 0.00 0.00 24 1012.1
20170329170546 26 67 6.4 16.1 0.00 0.00 0.00 24 1012.0
20170329170245 26 72 6.4 16.1 0.00 0.00 0.00 23 1012.0
20170329165946 26 87 14.5 16.1 0.00 0.00 0.00 22 1012.0
20170329165645 26 74 16.1 16.1 0.00 0.00 0.00 23 1012.0
20170329165042 26 60 8.0 12.9 0.00 0.00 0.00 24 1012.0
20170329164741 26 94 8.0 12.9 0.00 0.00 0.00 24 1011.8
20170329164438 26 54 8.0 14.5 0.00 0.00 0.00 24 1012.1
20170329164141 26 78 12.9 14.5 0.00 0.00 0.00 24 1011.9
20170329163835 26 20 4.8 11.3 0.00 0.00 0.00 25 1012.0
20170329163534 26 50 9.7 11.3 0.00 0.00 0.00 25 1011.9
20170329162934 26 76 6.4 8.0 0.00 0.00 0.00 27 1012.0
20170329162632 26 105 3.2 11.3 0.00 0.00 0.00 28 1012.0
20170329162031 26 60 8.0 9.7 0.00 0.00 0.00 28 1011.8
20170329161730 26 261 0.0 6.4 0.00 0.00 0.00 30 1012.0
20170329161125 26 270 4.8 4.8 0.00 0.00 0.00 32 1011.9
20170329160522 25 270 0.0 0.0 0.00 0.00 0.00 31 1012.1
20170329160223 25 252 1.6 4.8 0.00 0.00 0.00 32 1011.9
20170329155923 25 189 4.8 6.4 0.00 0.00 0.00 31 1012.1
20170329155626 25 193 4.8 6.4 0.00 0.00 0.00 32 1011.9
20170329155319 24 173 1.6 4.8 0.00 0.00 0.00 33 1011.9
20170329155028 23 225 0.0 0.0 0.00 0.00 0.00 34 1012.0
20170329154720 23 227 0.0 4.8 0.00 0.00 0.00 34 1012.0
20170329154415 23 189 3.2 6.4 0.00 0.00 0.00 34 1011.9
20170329154116 22 177 4.8 6.4 0.00 0.00 0.00 34 1011.8
20170329153814 22 153 1.6 6.4 0.00 0.00 0.00 35 1011.9
20170329153512 22 114 3.2 6.4 0.00 0.00 0.00 35 1011.9
20170329153211 22 132 4.8 6.4 0.00 0.00 0.00 35 1011.9
20170329152609 21 126 4.8 4.8 0.00 0.00 0.00 35 1011.7
20170329152308 21 94 4.8 4.8 0.00 0.00 0.00 36 1011.8
20170329152007 21 225 0.0 4.8 0.00 0.00 0.00 37 1011.7
20170329151706 20 121 3.2 3.2 0.00 0.00 0.00 38 1011.9
20170329151405 20 180 0.0 3.2 0.00 0.00 0.00 38 1011.8
20170329151104 20 202 0.0 3.2 0.00 0.00 0.00 38 1011.7
20170329150803 19 270 3.2 3.2 0.00 0.00 0.00 38 1011.8
20170329150502 19 270 0.0 3.2 0.00 0.00 0.00 37 1011.7
20170329150200 18 315 1.6 3.2 0.00 0.00 0.00 38 1011.6
20170329145858 18 126 1.6 3.2 0.00 0.00 0.00 39 1011.6
20170329144655 17 272 3.2 6.4 0.00 0.00 0.00 37 1011.5
20170329144355 17 265 3.2 6.4 0.00 0.00 0.00 37 1011.6
20170329144052 17 270 6.4 8.0 0.00 0.00 0.00 38 1011.5
20170329143750 17 270 8.0 8.0 0.00 0.00 0.00 38 1011.5
20170329143450 17 272 4.8 6.4 0.00 0.00 0.00 38 1011.4
20170329142847 16 45 0.0 1.6 0.00 0.00 0.00 38 1011.3
20170329142547 16 83 0.0 8.0 0.00 0.00 0.00 37 1011.2
20170329142246 16 128 6.4 11.3 0.00 0.00 0.00 37 1010.9
20170329141945 16 121 6.4 11.3 0.00 0.00 0.00 37 1011.1
20170329141645 15 90 9.7 9.7 0.00 0.00 0.00 37 1011.0
20170329141343 15 110 1.6 4.8 0.00 0.00 0.00 38 1011.0
20170329141041 15 164 1.6 4.8 0.00 0.00 0.00 38 1011.0
20170329140740 14 126 3.2 6.4 0.00 0.00 0.00 38 1011.1
20170329140137 13 105 8.0 8.0 0.00 0.00 0.00 40 1010.9
20170329135836 13 110 4.8 8.0 0.00 0.00 0.00 40 1010.8
20170329135229 13 105 3.2 3.2 0.00 0.00 0.00 39 1010.8
20170329134928 13 202 0.0 0.0 0.00 0.00 0.00 40 1010.9
20170329134627 13 270 0.0 3.2 0.00 0.00 0.00 39 1010.9
20170329134326 13 33 3.2 6.4 0.00 0.00 0.00 39 1010.9
20170329134024 14 42 4.8 6.4 0.00 0.00 0.00 39 1010.8
20170329133723 14 40 4.8 6.4 0.00 0.00 0.00 39 1010.7
20170329133424 14 321 3.2 8.0 0.00 0.00 0.00 38 1010.7
20170329133121 14 37 4.8 8.0 0.00 0.00 0.00 39 1010.7
20170329132822 14 18 3.2 8.0 0.00 0.00 0.00 39 1010.8
20170329132519 14 33 4.8 9.7 0.00 0.00 0.00 38 1010.7
20170329132218 14 20 8.0 9.7 0.00 0.00 0.00 39 1010.8
20170329131917 15 37 3.2 6.4 0.00 0.00 0.00 39 1010.6
20170329131617 15 0 4.8 6.4 0.00 0.00 0.00 38 1010.5
20170329131316 15 173 1.6 4.8 0.00 0.00 0.00 37 1010.7
20170329131015 15 6 3.2 4.8 0.00 0.00 0.00 37 1010.7
20170329130713 15 270 0.0 3.2 0.00 0.00 0.00 36 1010.8
20170329130411 15 315 1.6 6.4 0.00 0.00 0.00 36 1010.7
20170329130110 15 301 4.8 8.0 0.00 0.00 0.00 36 1010.8
20170329125809 15 315 6.4 8.0 0.00 0.00 0.00 36 1010.7
20170329125509 15 270 1.6 6.4 0.00 0.00 0.00 35 1010.6
20170329125207 16 315 4.8 4.8 0.00 0.00 0.00 36 1010.6
20170329124907 16 270 3.2 3.2 0.00 0.00 0.00 35 1010.5
20170329124606 16 270 1.6 1.6 0.00 0.00 0.00 35 1010.4
20170329124303 16 225 1.6 3.2 0.00 0.00 0.00 35 1010.4
20170329124037 16 225 0.0 3.2 0.00 0.00 0.00 34 1010.4
20170329124002 16 225 0.0 3.2 0.00 0.00 0.00 34 1010.4
20170329123736 16 225 0.0 4.8 0.00 0.00 0.00 34 1010.3
20170329123702 16 225 0.0 4.8 0.00 0.00 0.00 34 1010.3
20170329123457 17 225 0.0 4.8 0.00 0.00 0.00 35 1010.4
20170329123400 17 225 0.0 4.8 0.00 0.00 0.00 35 1010.4
20170329122846 16 90 4.8 11.3 0.00 0.00 0.00 34 1010.3
20170329122758 16 90 4.8 11.3 0.00 0.00 0.00 34 1010.3
20170329122533 16 92 9.7 14.5 0.00 0.00 0.00 33 1010.2
20170329122458 16 92 9.7 14.5 0.00 0.00 0.00 33 1010.2
20170329122246 16 83 9.7 20.9 0.00 0.00 0.00 34 1010.3
20170329122156 16 83 9.7 20.9 0.00 0.00 0.00 34 1010.3
20170329121932 16 94 12.9 19.3 0.00 0.00 0.00 34 1010.1
20170329121855 16 94 12.9 19.3 0.00 0.00 0.00 34 1010.1
20170329121631 16 87 16.1 16.1 0.00 0.00 0.00 34 1010.0
20170329121554 16 87 16.1 16.1 0.00 0.00 0.00 34 1010.0
20170329121340 16 90 6.4 11.3 0.00 0.00 0.00 35 1010.2
20170329121253 16 90 6.4 11.3 0.00 0.00 0.00 35 1010.2
20170329121030 16 117 1.6 4.8 0.00 0.00 0.00 35 1010.2
20170329120952 16 117 1.6 4.8 0.00 0.00 0.00 35 1010.2
20170329120422 16 357 1.6 3.2 0.00 0.00 0.00 35 1010.2
20170329120350 16 357 1.6 3.2 0.00 0.00 0.00 35 1010.2
20170329120144 16 184 3.2 3.2 0.00 0.00 0.00 34 1010.5
20170329120048 16 184 3.2 3.2 0.00 0.00 0.00 34 1010.5
20170329115827 16 164 0.0 3.2 0.00 0.00 0.00 34 1010.2
20170329115748 16 164 0.0 3.2 0.00 0.00 0.00 34 1010.2
20170329115446 16 45 3.2 8.0 0.00 0.00 0.00 34 1010.2
20170329115232 16 90 6.4 8.0 0.00 0.00 0.00 34 1010.5
20170329115145 16 90 6.4 8.0 0.00 0.00 0.00 34 1010.5
20170329114950 16 70 6.4 6.4 0.00 0.00 0.00 34 1010.7
20170329114844 16 70 6.4 6.4 0.00 0.00 0.00 34 1010.7
20170329114629 16 69 4.8 9.7 0.00 0.00 0.00 34 1010.3
20170329114542 16 69 4.8 9.7 0.00 0.00 0.00 34 1010.3
20170329113712 17 49 4.8 9.7 0.00 0.00 0.00 34 1010.6
20170329113639 17 49 4.8 9.7 0.00 0.00 0.00 34 1010.6
20170329113339 17 92 4.8 12.9 0.00 0.00 0.00 33 1010.5
20170329112812 16 58 9.7 12.9 0.00 0.00 0.00 34 1010.5
20170329112740 16 58 9.7 12.9 0.00 0.00 0.00 34 1010.5
20170329112435 16 42 9.7 12.9 0.00 0.00 0.00 34 1010.4
20170329112221 16 40 9.7 14.5 0.00 0.00 0.00 34 1010.4
20170329112134 16 40 9.7 14.5 0.00 0.00 0.00 34 1010.4
20170329111604 16 36 11.3 16.1 0.00 0.00 0.00 35 1010.6
20170329111533 16 36 11.3 16.1 0.00 0.00 0.00 35 1010.6
20170329111328 16 45 9.7 16.1 0.00 0.00 0.00 34 1010.5
20170329111230 16 45 9.7 16.1 0.00 0.00 0.00 34 1010.5
20170329111008 16 51 8.0 16.1 0.00 0.00 0.00 34 1010.5
20170329110929 16 51 8.0 16.1 0.00 0.00 0.00 34 1010.5
20170329110716 16 51 11.3 14.5 0.00 0.00 0.00 34 1010.5
20170329110628 16 51 11.3 14.5 0.00 0.00 0.00 34 1010.5
20170329110107 16 45 11.3 19.3 0.00 0.00 0.00 34 1010.4
20170329110026 16 45 11.3 19.3 0.00 0.00 0.00 34 1010.4
20170329105507 17 78 11.3 16.1 0.00 0.00 0.00 34 1010.5
20170329105428 17 78 11.3 16.1 0.00 0.00 0.00 34 1010.5
20170329105215 16 76 14.5 16.1 0.00 0.00 0.00 34 1010.4
20170329105122 16 76 14.5 16.1 0.00 0.00 0.00 34 1010.4
20170329104823 16 81 11.3 14.5 0.00 0.00 0.00 34 1010.6
20170329104012 16 85 11.3 14.5 0.00 0.00 0.00 34 1010.5
20170329103919 16 85 11.3 14.5 0.00 0.00 0.00 34 1010.5
20170329103618 16 72 8.0 14.5 0.00 0.00 0.00 35 1010.5
20170329102804 16 42 8.0 11.3 0.00 0.00 0.00 35 1010.6
20170329102714 16 42 8.0 11.3 0.00 0.00 0.00 35 1010.6
20170329102447 16 69 9.7 11.3 0.00 0.00 0.00 35 1010.7
20170329102413 16 69 9.7 11.3 0.00 0.00 0.00 35 1010.7
20170329102159 16 58 9.7 14.5 0.00 0.00 0.00 34 1010.6
20170329102113 16 58 9.7 14.5 0.00 0.00 0.00 34 1010.6
20170329101858 16 85 12.9 16.1 0.00 0.00 0.00 34 1010.8
20170329101509 17 74 8.0 16.1 0.00 0.00 0.00 35 1010.7
20170329101009 16 76 11.3 12.9 0.00 0.00 0.00 34 1010.8
20170329100907 16 76 11.3 12.9 0.00 0.00 0.00 34 1010.8
20170329100704 16 83 9.7 17.7 0.00 0.00 0.00 34 1010.8
20170329100607 16 83 9.7 17.7 0.00 0.00 0.00 34 1010.8
20170329100337 16 81 11.3 12.9 0.00 0.00 0.00 35 1010.9
20170329100305 16 81 11.3 12.9 0.00 0.00 0.00 35 1010.9
20170329095826 16 63 11.3 16.1 0.00 0.00 0.00 35 1011.0
20170329095703 16 63 11.3 16.1 0.00 0.00 0.00 35 1011.0
20170329095148 16 31 9.7 14.5 0.00 0.00 0.00 36 1011.0
20170329095100 16 31 9.7 14.5 0.00 0.00 0.00 36 1011.0
20170329094902 16 40 9.7 11.3 0.00 0.00 0.00 36 1010.9
20170329094801 16 40 9.7 11.3 0.00 0.00 0.00 36 1010.9
20170329093959 16 45 11.3 14.5 0.00 0.00 0.00 36 1010.7
20170329093857 16 45 11.3 14.5 0.00 0.00 0.00 36 1010.7
20170329093658 16 49 8.0 14.5 0.00 0.00 0.00 37 1010.7
20170329093555 16 49 8.0 14.5 0.00 0.00 0.00 37 1010.7
20170329093355 16 45 14.5 14.5 0.00 0.00 0.00 36 1011.0
20170329093254 16 45 14.5 14.5 0.00 0.00 0.00 36 1011.0
20170329093032 16 47 9.7 16.1 0.00 0.00 0.00 37 1011.2
20170329092953 16 47 9.7 16.1 0.00 0.00 0.00 37 1011.2
20170329092754 16 65 8.0 16.1 0.00 0.00 0.00 36 1011.0
20170329092652 16 65 8.0 16.1 0.00 0.00 0.00 36 1011.0
20170329092429 16 56 14.5 16.1 0.00 0.00 0.00 37 1010.8
20170329092350 16 56 14.5 16.1 0.00 0.00 0.00 37 1010.8
20170329092152 16 56 9.7 16.1 0.00 0.00 0.00 37 1010.8
20170329092049 16 56 9.7 16.1 0.00 0.00 0.00 37 1010.8
20170329091528 16 27 14.5 16.1 0.00 0.00 0.00 36 1010.9
20170329091442 16 27 14.5 16.1 0.00 0.00 0.00 36 1010.9
20170329091224 16 49 8.0 16.1 0.00 0.00 0.00 37 1010.7
20170329091141 16 49 8.0 16.1 0.00 0.00 0.00 37 1010.7
20170329090940 16 33 12.9 12.9 0.00 0.00 0.00 37 1010.8
20170329090840 16 33 12.9 12.9 0.00 0.00 0.00 37 1010.8
20170329090406 16 49 16.1 16.1 0.00 0.00 0.00 38 1010.9
20170329090312 16 49 16.1 16.1 0.00 0.00 0.00 38 1010.9
20170329090238 16 49 16.1 16.1 0.00 0.00 0.00 38 1010.9
20170329090034 16 45 11.3 14.5 0.00 0.00 0.00 38 1010.9
20170329085937 16 45 11.3 14.5 0.00 0.00 0.00 38 1010.9
20170329085725 16 45 14.5 14.5 0.00 0.00 0.00 38 1010.9
20170329085635 16 45 14.5 14.5 0.00 0.00 0.00 38 1010.9
20170329085442 16 20 8.0 11.3 0.00 0.00 0.00 39 1010.8
20170329085107 16 51 8.0 12.9 0.00 0.00 0.00 38 1011.2
20170329085033 16 51 8.0 12.9 0.00 0.00 0.00 38 1011.2
20170329084835 16 45 9.7 11.3 0.00 0.00 0.00 39 1010.8
20170329084732 16 45 9.7 11.3 0.00 0.00 0.00 39 1010.8
20170329084529 16 42 8.0 11.3 0.00 0.00 0.00 38 1010.9
20170329084431 16 42 8.0 11.3 0.00 0.00 0.00 38 1010.9
20170329084225 16 38 11.3 14.5 0.00 0.00 0.00 39 1011.1
20170329084130 16 38 11.3 14.5 0.00 0.00 0.00 39 1011.1
20170329083626 16 40 11.3 12.9 0.00 0.00 0.00 39 1010.9
20170329083528 16 40 11.3 12.9 0.00 0.00 0.00 39 1010.9
20170329083303 16 45 11.3 14.5 0.00 0.00 0.00 39 1011.1
20170329083229 16 45 11.3 14.5 0.00 0.00 0.00 39 1011.1
20170329083008 16 38 12.9 14.5 0.00 0.00 0.00 39 1011.1
20170329082926 16 38 12.9 14.5 0.00 0.00 0.00 39 1011.1
20170329082721 16 42 9.7 19.3 0.00 0.00 0.00 39 1011.1
20170329082626 16 42 9.7 19.3 0.00 0.00 0.00 39 1011.1
20170329082426 16 40 9.7 19.3 0.00 0.00 0.00 39 1010.9
20170329082323 16 40 9.7 19.3 0.00 0.00 0.00 39 1010.9
20170329082110 16 47 9.7 16.1 0.00 0.00 0.00 39 1011.1
20170329082022 16 47 9.7 16.1 0.00 0.00 0.00 39 1011.1
20170329081800 16 45 12.9 16.1 0.00 0.00 0.00 39 1011.2
20170329081722 16 45 12.9 16.1 0.00 0.00 0.00 39 1011.2
20170329081458 16 38 12.9 17.7 0.00 0.00 0.00 39 1011.2
20170329081420 16 38 12.9 17.7 0.00 0.00 0.00 39 1011.2
20170329081219 16 40 14.5 16.1 0.00 0.00 0.00 39 1011.1
20170329081119 16 40 14.5 16.1 0.00 0.00 0.00 39 1011.1
20170329080927 16 58 6.4 11.3 0.00 0.00 0.00 38 1011.1
20170329080818 16 58 6.4 11.3 0.00 0.00 0.00 38 1011.1
20170329080550 16 58 9.7 12.9 0.00 0.00 0.00 39 1010.9
20170329080517 16 58 9.7 12.9 0.00 0.00 0.00 39 1010.9
20170329080258 16 65 12.9 12.9 0.00 0.00 0.00 38 1011.0
20170329080216 16 65 12.9 12.9 0.00 0.00 0.00 38 1011.0
20170329075955 16 49 8.0 14.5 0.00 0.00 0.00 38 1010.9
20170329075915 16 49 8.0 14.5 0.00 0.00 0.00 38 1010.9
20170329075649 16 51 11.3 14.5 0.00 0.00 0.00 38 1011.4
20170329075614 16 51 11.3 14.5 0.00 0.00 0.00 38 1011.4
20170329075426 16 45 12.9 16.1 0.00 0.00 0.00 37 1011.1
20170329075312 16 45 12.9 16.1 0.00 0.00 0.00 37 1011.1
20170329075012 16 85 11.3 16.1 0.00 0.00 0.00 37 1011.1
20170329074744 16 81 11.3 19.3 0.00 0.00 0.00 37 1011.0
20170329074711 16 81 11.3 19.3 0.00 0.00 0.00 37 1011.0
20170329074506 16 92 11.3 19.3 0.00 0.00 0.00 36 1010.9
20170329074409 16 92 11.3 19.3 0.00 0.00 0.00 36 1010.9
20170329074144 16 117 6.4 16.1 0.00 0.00 0.00 38 1011.2
20170329074108 16 117 6.4 16.1 0.00 0.00 0.00 38 1011.2
20170329073928 16 114 11.3 16.1 0.00 0.00 0.00 38 1011.0
20170329073808 16 114 11.3 16.1 0.00 0.00 0.00 38 1011.0
20170329073559 16 94 11.3 16.1 0.00 0.00 0.00 38 1011.1
20170329073506 16 94 11.3 16.1 0.00 0.00 0.00 38 1011.1
20170329073246 16 99 11.3 14.5 0.00 0.00 0.00 39 1011.2
20170329073206 16 99 11.3 14.5 0.00 0.00 0.00 39 1011.2
20170329073001 16 112 9.7 14.5 0.00 0.00 0.00 38 1011.2
20170329072905 16 112 9.7 14.5 0.00 0.00 0.00 38 1011.2
20170329072343 16 119 4.8 9.7 0.00 0.00 0.00 38 1011.1
20170329072305 16 119 4.8 9.7 0.00 0.00 0.00 38 1011.1
20170329071740 16 92 9.7 11.3 0.00 0.00 0.00 37 1011.2
20170329071659 16 92 9.7 11.3 0.00 0.00 0.00 37 1011.2
20170329071452 16 90 11.3 12.9 0.00 0.00 0.00 37 1010.9
20170329071358 16 90 11.3 12.9 0.00 0.00 0.00 37 1010.9
20170329071237 16 90 9.7 14.5 0.00 0.00 0.00 37 1010.9
20170329071159 16 90 9.7 14.5 0.00 0.00 0.00 37 1010.9
20170329071057 16 90 9.7 14.5 0.00 0.00 0.00 37 1010.9
20170329070456 16 90 12.9 16.1 0.00 0.00 0.00 38 1010.6
20170329070256 16 87 16.1 16.1 0.00 0.00 0.00 39 1010.7
20170329070154 16 87 16.1 16.1 0.00 0.00 0.00 39 1010.7
20170329065932 16 85 6.4 12.9 0.00 0.00 0.00 40 1010.7
20170329065852 16 85 6.4 12.9 0.00 0.00 0.00 40 1010.7
20170329065641 16 69 4.8 12.9 0.00 0.00 0.00 40 1010.7
20170329065552 16 69 4.8 12.9 0.00 0.00 0.00 40 1010.7
20170329065339 16 90 11.3 19.3 0.00 0.00 0.00 40 1010.8
20170329065250 16 90 11.3 19.3 0.00 0.00 0.00 40 1010.8
20170329065044 15 87 14.5 16.1 0.00 0.00 0.00 40 1010.8
20170329064949 15 87 14.5 16.1 0.00 0.00 0.00 40 1010.8
20170329064743 15 90 6.4 11.3 0.00 0.00 0.00 42 1010.9
20170329064648 15 90 6.4 11.3 0.00 0.00 0.00 42 1010.9
20170329064437 15 78 11.3 14.5 0.00 0.00 0.00 42 1011.0
20170329064348 15 78 11.3 14.5 0.00 0.00 0.00 42 1011.0
20170329064237 15 90 8.0 12.9 0.00 0.00 0.00 43 1011.0
20170329064149 15 90 8.0 12.9 0.00 0.00 0.00 43 1011.0
20170329064046 15 90 8.0 12.9 0.00 0.00 0.00 43 1011.0
20170329063745 15 87 3.2 8.0 0.00 0.00 0.00 43 1011.1
20170329063523 15 40 6.4 6.4 0.00 0.00 0.00 45 1011.1
20170329063445 15 40 6.4 6.4 0.00 0.00 0.00 45 1011.1
20170329063244 15 50 0.0 4.8 0.00 0.00 0.00 45 1011.0
20170329063143 15 50 0.0 4.8 0.00 0.00 0.00 45 1011.0
20170329062929 15 202 0.0 4.8 0.00 0.00 0.00 46 1011.2
20170329062841 15 202 0.0 4.8 0.00 0.00 0.00 46 1011.2
20170329062640 15 135 3.2 6.4 0.00 0.00 0.00 45 1011.1
20170329062540 15 135 3.2 6.4 0.00 0.00 0.00 45 1011.1
20170329062342 15 164 4.8 4.8 0.00 0.00 0.00 45 1011.1
20170329062240 15 164 4.8 4.8 0.00 0.00 0.00 45 1011.1
20170329062025 15 175 1.6 4.8 0.00 0.00 0.00 45 1011.1
20170329061938 15 175 1.6 4.8 0.00 0.00 0.00 45 1011.1
20170329061710 15 171 3.2 4.8 0.00 0.00 0.00 45 1011.1
20170329061637 15 171 3.2 4.8 0.00 0.00 0.00 45 1011.1
20170329061440 15 137 1.6 4.8 0.00 0.00 0.00 45 1011.3
20170329061336 15 137 1.6 4.8 0.00 0.00 0.00 45 1011.3
20170329061125 15 225 0.0 6.4 0.00 0.00 0.00 44 1011.2
20170329061036 15 225 0.0 6.4 0.00 0.00 0.00 44 1011.2
20170329060812 15 270 3.2 6.4 0.00 0.00 0.00 45 1011.0
20170329060734 15 270 3.2 6.4 0.00 0.00 0.00 45 1011.0
20170329060434 15 0 3.2 4.8 0.00 0.00 0.00 45 1011.1
20170329060248 15 81 4.8 8.0 0.00 0.00 0.00 45 1011.2
20170329060132 15 81 4.8 8.0 0.00 0.00 0.00 45 1011.2
20170329055921 15 112 3.2 8.0 0.00 0.00 0.00 44 1010.9
20170329055830 15 112 3.2 8.0 0.00 0.00 0.00 44 1010.9
20170329055615 15 119 4.8 8.0 0.00 0.00 0.00 45 1011.0
20170329055529 15 119 4.8 8.0 0.00 0.00 0.00 45 1011.0
20170329055330 15 54 6.4 8.0 0.00 0.00 0.00 44 1011.1
20170329055229 15 54 6.4 8.0 0.00 0.00 0.00 44 1011.1
20170329055026 15 85 6.4 11.3 0.00 0.00 0.00 45 1010.9
20170329054927 15 85 6.4 11.3 0.00 0.00 0.00 45 1010.9
20170329054702 15 85 1.6 6.4 0.00 0.00 0.00 45 1011.0
20170329054626 15 85 1.6 6.4 0.00 0.00 0.00 45 1011.0
20170329054438 15 19 3.2 8.0 0.00 0.00 0.00 45 1011.2
20170329054325 15 19 3.2 8.0 0.00 0.00 0.00 45 1011.2
20170329054125 15 65 3.2 8.0 0.00 0.00 0.00 45 1011.0
20170329054025 15 65 3.2 8.0 0.00 0.00 0.00 45 1011.0
20170329053758 15 45 4.8 6.4 0.00 0.00 0.00 45 1011.0
20170329053724 15 45 4.8 6.4 0.00 0.00 0.00 45 1011.0
20170329053503 15 49 3.2 4.8 0.00 0.00 0.00 45 1011.0
20170329053422 15 49 3.2 4.8 0.00 0.00 0.00 45 1011.0
20170329053121 15 90 4.8 8.0 0.00 0.00 0.00 45 1011.1
20170329052912 15 182 0.0 8.0 0.00 0.00 0.00 44 1011.0
20170329052819 15 182 0.0 8.0 0.00 0.00 0.00 44 1011.0
20170329052617 15 65 4.8 9.7 0.00 0.00 0.00 45 1011.0
20170329052518 15 65 4.8 9.7 0.00 0.00 0.00 45 1011.0
20170329052252 16 87 6.4 9.7 0.00 0.00 0.00 44 1011.0
20170329052217 16 87 6.4 9.7 0.00 0.00 0.00 44 1011.0
20170329051957 16 31 3.2 9.7 0.00 0.00 0.00 44 1011.1
20170329051916 16 31 3.2 9.7 0.00 0.00 0.00 44 1011.1
20170329051706 16 56 9.7 9.7 0.00 0.00 0.00 44 1010.9
20170329051616 16 56 9.7 9.7 0.00 0.00 0.00 44 1010.9
20170329051418 16 42 6.4 9.7 0.00 0.00 0.00 44 1011.1
20170329051317 16 42 6.4 9.7 0.00 0.00 0.00 44 1011.1
20170329050752 16 76 8.0 9.7 0.00 0.00 0.00 45 1010.8
20170329050712 16 76 8.0 9.7 0.00 0.00 0.00 45 1010.8
20170329050156 16 87 4.8 8.0 0.00 0.00 0.00 44 1010.9
20170329050110 16 87 4.8 8.0 0.00 0.00 0.00 44 1010.9
20170329045907 16 87 3.2 11.3 0.00 0.00 0.00 45 1011.0
20170329045808 16 87 3.2 11.3 0.00 0.00 0.00 45 1011.0
20170329045512 16 78 6.4 11.3 0.00 0.00 0.00 44 1010.9
20170329045246 16 78 8.0 14.5 0.00 0.00 0.00 44 1011.0
20170329045207 16 78 8.0 14.5 0.00 0.00 0.00 44 1011.0
20170329044945 16 67 6.4 11.3 0.00 0.00 0.00 45 1010.8
20170329044905 16 67 6.4 11.3 0.00 0.00 0.00 45 1010.8
20170329044640 16 54 6.4 11.3 0.00 0.00 0.00 45 1010.7
20170329044605 16 54 6.4 11.3 0.00 0.00 0.00 45 1010.7
20170329044354 16 49 11.3 14.5 0.00 0.00 0.00 45 1010.6
20170329044303 16 49 11.3 14.5 0.00 0.00 0.00 45 1010.6
20170329044115 16 63 6.4 12.9 0.00 0.00 0.00 45 1010.7
20170329044036 16 63 6.4 12.9 0.00 0.00 0.00 45 1010.7
20170329044002 16 63 6.4 12.9 0.00 0.00 0.00 45 1010.7
20170329043757 16 92 8.0 9.7 0.00 0.00 0.00 45 1010.6
20170329043703 16 92 8.0 9.7 0.00 0.00 0.00 45 1010.6
20170329043459 16 49 9.7 9.7 0.00 0.00 0.00 45 1010.6
20170329043401 16 49 9.7 9.7 0.00 0.00 0.00 45 1010.6
20170329043216 16 60 4.8 12.9 0.00 0.00 0.00 46 1010.9
20170329043059 16 60 4.8 12.9 0.00 0.00 0.00 46 1010.9
20170329042251 16 47 4.8 14.5 0.00 0.00 0.00 46 1010.9
20170329042155 16 47 4.8 14.5 0.00 0.00 0.00 46 1010.9
20170329041936 16 65 6.4 14.5 0.00 0.00 0.00 45 1011.0
20170329041854 16 65 6.4 14.5 0.00 0.00 0.00 45 1011.0
20170329041629 16 56 8.0 19.3 0.00 0.00 0.00 46 1011.0
20170329041553 16 56 8.0 19.3 0.00 0.00 0.00 46 1011.0
20170329041423 16 49 11.3 19.3 0.00 0.00 0.00 45 1010.7
20170329041252 16 49 11.3 19.3 0.00 0.00 0.00 45 1010.7
20170329041023 16 42 14.5 20.9 0.00 0.00 0.00 46 1010.7
20170329040952 16 42 14.5 20.9 0.00 0.00 0.00 46 1010.7
20170329040735 16 20 16.1 19.3 0.00 0.00 0.00 46 1010.5
20170329040651 16 20 16.1 19.3 0.00 0.00 0.00 46 1010.5
20170329040133 16 40 8.0 19.3 0.00 0.00 0.00 46 1010.5
20170329040047 16 40 8.0 19.3 0.00 0.00 0.00 46 1010.5
20170329035834 16 45 11.3 14.5 0.00 0.00 0.00 46 1010.5
20170329035746 16 45 11.3 14.5 0.00 0.00 0.00 46 1010.5
20170329035533 16 51 6.4 12.9 0.00 0.00 0.00 46 1010.7
20170329035448 16 51 6.4 12.9 0.00 0.00 0.00 46 1010.7
20170329035228 15 22 11.3 12.9 0.00 0.00 0.00 47 1010.4
20170329035144 15 22 11.3 12.9 0.00 0.00 0.00 47 1010.4
20170329034936 15 11 4.8 9.7 0.00 0.00 0.00 47 1010.3
20170329034843 15 11 4.8 9.7 0.00 0.00 0.00 47 1010.3
20170329034632 15 326 4.8 9.7 0.00 0.00 0.00 47 1010.4
20170329034542 15 326 4.8 9.7 0.00 0.00 0.00 47 1010.4
20170329034335 15 324 1.6 9.7 0.00 0.00 0.00 48 1010.3
20170329034242 15 324 1.6 9.7 0.00 0.00 0.00 48 1010.3
20170329034015 15 290 8.0 9.7 0.00 0.00 0.00 49 1010.3
20170329033940 15 290 8.0 9.7 0.00 0.00 0.00 49 1010.3
20170329033640 15 312 6.4 9.7 0.00 0.00 0.00 49 1010.2
20170329033425 15 318 3.2 9.7 0.00 0.00 0.00 49 1010.2
20170329033337 15 318 3.2 9.7 0.00 0.00 0.00 49 1010.2
20170329033119 15 312 4.8 6.4 0.00 0.00 0.00 49 1010.1
20170329033036 15 312 4.8 6.4 0.00 0.00 0.00 49 1010.1
20170329032737 15 355 1.6 3.2 0.00 0.00 0.00 49 1010.1
20170329032521 15 2 1.6 3.2 0.00 0.00 0.00 50 1010.0
20170329032434 15 2 1.6 3.2 0.00 0.00 0.00 50 1010.0
20170329032231 15 252 0.0 0.0 0.00 0.00 0.00 49 1009.9
20170329032133 15 252 0.0 0.0 0.00 0.00 0.00 49 1009.9
20170329031912 15 180 0.0 3.2 0.00 0.00 0.00 49 1010.0
20170329031832 15 180 0.0 3.2 0.00 0.00 0.00 49 1010.0
20170329031612 15 27 3.2 6.4 0.00 0.00 0.00 49 1010.0
20170329031531 15 27 3.2 6.4 0.00 0.00 0.00 49 1010.0
20170329031347 15 270 0.0 8.0 0.00 0.00 0.00 50 1009.8
20170329031231 15 270 0.0 8.0 0.00 0.00 0.00 50 1009.8
20170329030407 15 270 1.6 6.4 0.00 0.00 0.00 48 1009.8
20170329030326 15 270 1.6 6.4 0.00 0.00 0.00 48 1009.8
20170329030109 15 0 4.8 4.8 0.00 0.00 0.00 49 1009.7
20170329030025 15 0 4.8 4.8 0.00 0.00 0.00 49 1009.7
20170329025821 15 270 0.0 3.2 0.00 0.00 0.00 47 1009.8
20170329025724 15 270 0.0 3.2 0.00 0.00 0.00 47 1009.8
20170329025423 16 324 3.2 3.2 0.00 0.00 0.00 47 1009.7
20170329025122 16 303 0.0 3.2 0.00 0.00 0.00 47 1009.5
20170329024822 16 357 1.6 1.6 0.00 0.00 0.00 46 1009.6
20170329024257 16 265 0.0 0.0 0.00 0.00 0.00 45 1009.5
20170329024219 16 265 0.0 0.0 0.00 0.00 0.00 45 1009.5
20170329023919 16 274 0.0 3.2 0.00 0.00 0.00 45 1009.5
20170329023706 16 135 0.0 0.0 0.00 0.00 0.00 45 1009.3
20170329023617 16 135 0.0 0.0 0.00 0.00 0.00 45 1009.3
20170329023057 17 225 0.0 0.0 0.00 0.00 0.00 44 1009.4
20170329023014 17 225 0.0 0.0 0.00 0.00 0.00 44 1009.4
20170329022852 17 130 0.0 0.0 0.00 0.00 0.00 44 1009.5
20170329022713 17 130 0.0 0.0 0.00 0.00 0.00 44 1009.5
20170329022520 17 270 0.0 6.4 0.00 0.00 0.00 43 1009.5
20170329022412 17 270 0.0 6.4 0.00 0.00 0.00 43 1009.5
20170329022226 17 222 0.0 6.4 0.00 0.00 0.00 42 1009.5
20170329022111 17 222 0.0 6.4 0.00 0.00 0.00 42 1009.5
20170329021945 17 193 1.6 9.7 0.00 0.00 0.00 42 1009.2
20170329021810 17 193 1.6 9.7 0.00 0.00 0.00 42 1009.2
20170329021546 18 189 3.2 8.0 0.00 0.00 0.00 42 1009.3
20170329021509 18 189 3.2 8.0 0.00 0.00 0.00 42 1009.3
20170329021242 18 173 3.2 3.2 0.00 0.00 0.00 42 1009.2
20170329021209 18 173 3.2 3.2 0.00 0.00 0.00 42 1009.2
20170329020605 18 294 4.8 6.4 0.00 0.00 0.00 42 1009.5
20170329020412 18 270 1.6 3.2 0.00 0.00 0.00 40 1009.4
20170329020304 18 270 1.6 3.2 0.00 0.00 0.00 40 1009.4
20170329015828 19 180 0.0 4.8 0.00 0.00 0.00 39 1009.3
20170329015702 19 180 0.0 4.8 0.00 0.00 0.00 39 1009.3
20170329014934 20 180 0.0 0.0 0.00 0.00 0.00 37 1009.2
20170329014759 20 180 0.0 0.0 0.00 0.00 0.00 37 1009.2
20170329014158 20 225 0.0 6.4 0.00 0.00 0.00 35 1009.2
20170329013646 21 261 6.4 6.4 0.00 0.00 0.00 35 1009.0
20170329013556 21 261 6.4 6.4 0.00 0.00 0.00 35 1009.0
20170329013337 21 247 4.8 4.8 0.00 0.00 0.00 34 1009.3
20170329013254 21 247 4.8 4.8 0.00 0.00 0.00 34 1009.3
20170329013030 21 256 6.4 12.9 0.00 0.00 0.00 33 1009.4
20170329012955 21 256 6.4 12.9 0.00 0.00 0.00 33 1009.4
20170329012753 21 263 11.3 14.5 0.00 0.00 0.00 33 1009.3
20170329012656 21 263 11.3 14.5 0.00 0.00 0.00 33 1009.3
20170329012527 22 270 8.0 14.5 0.00 0.00 0.00 33 1009.4
20170329012353 22 270 8.0 14.5 0.00 0.00 0.00 33 1009.4
20170329012138 22 270 8.0 14.5 0.00 0.00 0.00 33 1009.2
20170329012050 22 270 8.0 14.5 0.00 0.00 0.00 33 1009.2
20170329011904 22 267 12.9 16.1 0.00 0.00 0.00 32 1009.1
20170329011752 22 267 12.9 16.1 0.00 0.00 0.00 32 1009.1
20170329011448 22 276 12.9 16.1 0.00 0.00 0.00 32 1009.1
20170329011343 23 299 9.7 14.5 0.00 0.00 0.00 32 1009.0
20170329011145 23 299 9.7 14.5 0.00 0.00 0.00 32 1009.0
20170329010935 23 267 11.3 11.3 0.00 0.00 0.00 32 1008.9
20170329010847 23 267 11.3 11.3 0.00 0.00 0.00 32 1008.9
20170329010043 23 245 3.2 6.4 0.00 0.00 0.00 32 1009.0
20170329005942 23 245 3.2 6.4 0.00 0.00 0.00 32 1009.0
20170329005802 23 254 4.8 8.0 0.00 0.00 0.00 32 1009.2
20170329005641 23 254 4.8 8.0 0.00 0.00 0.00 32 1009.2
20170329005446 23 261 3.2 8.0 0.00 0.00 0.00 31 1009.3
20170329005340 23 261 3.2 8.0 0.00 0.00 0.00 31 1009.3
20170329005154 23 252 4.8 11.3 0.00 0.00 0.00 31 1009.1
20170329005039 23 252 4.8 11.3 0.00 0.00 0.00 31 1009.1
20170329004851 23 265 6.4 12.9 0.00 0.00 0.00 31 1009.0
20170329004738 23 265 6.4 12.9 0.00 0.00 0.00 31 1009.0
20170329004531 24 262 6.4 8.0 0.00 0.00 0.00 30 1008.9
20170329004437 24 262 6.4 8.0 0.00 0.00 0.00 30 1008.9
20170329004229 24 249 4.8 8.0 0.00 0.00 0.00 30 1009.0
20170329004137 24 249 4.8 8.0 0.00 0.00 0.00 30 1009.0
20170329003935 24 270 4.8 6.4 0.00 0.00 0.00 31 1009.0
20170329003836 24 270 4.8 6.4 0.00 0.00 0.00 31 1009.0
20170329003647 24 234 3.2 8.0 0.00 0.00 0.00 30 1009.0
20170329003533 24 234 3.2 8.0 0.00 0.00 0.00 30 1009.0
20170329003408 24 258 3.2 8.0 0.00 0.00 0.00 31 1009.0
20170329003232 24 258 3.2 8.0 0.00 0.00 0.00 31 1009.0
20170329003016 24 243 6.4 9.7 0.00 0.00 0.00 30 1009.0
20170329002931 24 243 6.4 9.7 0.00 0.00 0.00 30 1009.0
20170329002630 24 245 4.8 14.5 0.00 0.00 0.00 30 1009.1
20170329002442 24 243 6.4 14.5 0.00 0.00 0.00 30 1009.0
20170329002329 24 243 6.4 14.5 0.00 0.00 0.00 30 1009.0
20170329001911 24 252 8.0 12.9 0.00 0.00 0.00 30 1009.1
20170329001727 24 252 8.0 12.9 0.00 0.00 0.00 30 1009.1
20170329001536 25 265 8.0 12.9 0.00 0.00 0.00 30 1009.2
20170329001425 25 265 8.0 12.9 0.00 0.00 0.00 30 1009.2
20170329001124 25 258 6.4 9.7 0.00 0.00 0.00 30 1009.1
20170329000523 25 257 3.2 12.9 0.00 0.00 0.00 29 1008.9
20170329000315 25 237 4.8 9.7 0.00 0.00 0.00 29 1009.0
20170329000221 25 237 4.8 9.7 0.00 0.00 0.00 29 1009.0
20170329000021 25 245 6.4 11.3 0.00 0.00 0.00 28 1008.9
20170328235920 25 245 6.4 11.3 0.00 0.00 0.00 28 1008.9
20170328235721 25 222 1.6 11.3 0.00 0.00 0.00 28 1009.1
20170328235619 25 222 1.6 11.3 0.00 0.00 0.00 28 1009.1
20170328234820 25 256 9.7 12.9 0.00 0.00 0.00 27 1008.9
20170328234715 25 256 9.7 12.9 0.00 0.00 0.00 27 1008.9
20170328234527 25 244 4.8 12.9 0.00 0.00 0.00 27 1008.8
20170328234414 25 244 4.8 12.9 0.00 0.00 0.00 27 1008.8
20170328234322 26 256 9.7 12.9 0.00 0.00 0.00 26 1008.8
20170328234113 26 256 9.7 12.9 0.00 0.00 0.00 26 1008.8
20170328233949 26 263 11.3 27.4 0.00 0.00 0.00 25 1008.7
20170328233812 26 263 11.3 27.4 0.00 0.00 0.00 25 1008.7
20170328233644 26 315 16.1 16.1 0.00 0.00 0.00 21 1008.6
20170328233512 26 315 16.1 16.1 0.00 0.00 0.00 21 1008.6
20170328233402 26 290 1.6 11.3 0.00 0.00 0.00 22 1008.7
20170328233210 26 290 1.6 11.3 0.00 0.00 0.00 22 1008.7
20170328233034 26 85 8.0 9.7 0.00 0.00 0.00 22 1008.9
20170328232909 26 85 8.0 9.7 0.00 0.00 0.00 22 1008.9
20170328232712 26 65 9.7 12.9 0.00 0.00 0.00 21 1008.6
20170328232610 26 65 9.7 12.9 0.00 0.00 0.00 21 1008.6
20170328232407 26 49 4.8 16.1 0.00 0.00 0.00 21 1008.7
20170328232307 26 49 4.8 16.1 0.00 0.00 0.00 21 1008.7
20170328232128 26 76 11.3 16.1 0.00 0.00 0.00 21 1008.9
20170328232006 26 76 11.3 16.1 0.00 0.00 0.00 21 1008.9
20170328231827 26 67 9.7 16.1 0.00 0.00 0.00 21 1008.9
20170328231705 26 67 9.7 16.1 0.00 0.00 0.00 21 1008.9
20170328231458 26 357 16.1 16.1 0.00 0.00 0.00 21 1008.9
20170328231405 26 357 16.1 16.1 0.00 0.00 0.00 21 1008.9
20170328231153 26 90 9.7 19.3 0.00 0.00 0.00 21 1008.8
20170328231103 26 90 9.7 19.3 0.00 0.00 0.00 21 1008.8
20170328230559 25 78 14.5 19.3 0.00 0.00 0.00 21 1008.9
20170328230455 25 78 14.5 19.3 0.00 0.00 0.00 21 1008.9
20170328230409 25 63 6.4 14.5 0.00 0.00 0.00 22 1009.1
20170328230154 25 63 6.4 14.5 0.00 0.00 0.00 22 1009.1
20170328225948 25 45 3.2 25.7 0.00 0.00 0.00 22 1009.1
20170328225853 25 45 3.2 25.7 0.00 0.00 0.00 22 1009.1
20170328225713 25 67 20.9 25.7 0.00 0.00 0.00 20 1009.2
20170328225552 25 67 20.9 25.7 0.00 0.00 0.00 20 1009.2
20170328225424 25 28 3.2 16.1 0.00 0.00 0.00 22 1009.3
20170328225251 25 28 3.2 16.1 0.00 0.00 0.00 22 1009.3
20170328225111 25 276 1.6 9.7 0.00 0.00 0.00 23 1009.3
20170328224952 25 276 1.6 9.7 0.00 0.00 0.00 23 1009.3
20170328224539 25 45 3.2 17.7 0.00 0.00 0.00 22 1009.2
20170328224348 25 45 3.2 17.7 0.00 0.00 0.00 22 1009.2
20170328224243 25 47 9.7 17.7 0.00 0.00 0.00 21 1009.3
20170328224048 25 47 9.7 17.7 0.00 0.00 0.00 21 1009.3
20170328223911 25 67 11.3 24.1 0.00 0.00 0.00 22 1009.3
20170328223746 25 67 11.3 24.1 0.00 0.00 0.00 22 1009.3
20170328223318 25 78 16.1 25.7 0.00 0.00 0.00 21 1009.3
20170328223143 25 78 16.1 25.7 0.00 0.00 0.00 21 1009.3
20170328222935 25 87 11.3 16.1 0.00 0.00 0.00 21 1009.4
20170328222842 25 87 11.3 16.1 0.00 0.00 0.00 21 1009.4
20170328222723 25 92 9.7 22.5 0.00 0.00 0.00 21 1009.5
20170328222541 25 92 9.7 22.5 0.00 0.00 0.00 21 1009.5
20170328222355 25 58 9.7 22.5 0.00 0.00 0.00 21 1009.6
20170328222240 25 58 9.7 22.5 0.00 0.00 0.00 21 1009.6
20170328222127 25 348 6.4 16.1 0.00 0.00 0.00 22 1009.5
20170328221943 25 348 6.4 16.1 0.00 0.00 0.00 22 1009.5
20170328221517 25 4 12.9 16.1 0.00 0.00 0.00 22 1009.6
20170328221338 25 4 12.9 16.1 0.00 0.00 0.00 22 1009.6
20170328221203 25 45 6.4 16.1 0.00 0.00 0.00 23 1009.6
20170328221035 25 45 6.4 16.1 0.00 0.00 0.00 23 1009.6
20170328220935 25 103 12.9 19.3 0.00 0.00 0.00 21 1009.5
20170328220734 25 103 12.9 19.3 0.00 0.00 0.00 21 1009.5
20170328220433 25 38 6.4 19.3 0.00 0.00 0.00 22 1009.7
20170328220132 25 85 14.5 19.3 0.00 0.00 0.00 21 1009.7
20170328220003 25 40 12.9 17.7 0.00 0.00 0.00 23 1009.9
20170328215830 25 40 12.9 17.7 0.00 0.00 0.00 23 1009.9
20170328215705 25 2 11.3 20.9 0.00 0.00 0.00 22 1009.8
20170328215532 25 2 11.3 20.9 0.00 0.00 0.00 22 1009.8
20170328215416 25 96 16.1 30.6 0.00 0.00 0.00 22 1009.8
20170328215229 25 96 16.1 30.6 0.00 0.00 0.00 22 1009.8
20170328215048 25 74 19.3 30.6 0.00 0.00 0.00 21 1009.8
20170328214930 25 74 19.3 30.6 0.00 0.00 0.00 21 1009.8
20170328214832 25 81 4.8 14.5 0.00 0.00 0.00 24 1010.0
20170328214628 25 81 4.8 14.5 0.00 0.00 0.00 24 1010.0
20170328214144 25 45 11.3 14.5 0.00 0.00 0.00 24 1010.1
20170328214026 25 45 11.3 14.5 0.00 0.00 0.00 24 1010.1
20170328213852 25 74 6.4 19.3 0.00 0.00 0.00 24 1010.1
20170328213723 25 74 6.4 19.3 0.00 0.00 0.00 24 1010.1
20170328213621 25 40 14.5 19.3 0.00 0.00 0.00 23 1010.1
20170328213423 25 40 14.5 19.3 0.00 0.00 0.00 23 1010.1
20170328213337 25 2 8.0 29.0 0.00 0.00 0.00 24 1010.2
20170328213121 25 2 8.0 29.0 0.00 0.00 0.00 24 1010.2
20170328212938 25 81 22.5 22.5 0.00 0.00 0.00 22 1010.1
20170328212823 25 81 22.5 22.5 0.00 0.00 0.00 22 1010.1
20170328212623 25 74 19.3 19.3 0.00 0.00 0.00 23 1010.2
20170328212519 25 74 19.3 19.3 0.00 0.00 0.00 23 1010.2
20170328212427 25 0 8.0 12.9 0.00 0.00 0.00 24 1010.4
20170328212220 25 0 8.0 12.9 0.00 0.00 0.00 24 1010.4
20170328212106 25 78 8.0 20.9 0.00 0.00 0.00 24 1010.3
20170328211918 25 78 8.0 20.9 0.00 0.00 0.00 24 1010.3
20170328211711 24 40 12.9 20.9 0.00 0.00 0.00 23 1010.4
20170328211614 24 40 12.9 20.9 0.00 0.00 0.00 23 1010.4
20170328211315 24 74 14.5 29.0 0.00 0.00 0.00 23 1010.4
20170328211013 25 37 3.2 27.4 0.00 0.00 0.00 23 1010.4
20170328210812 25 47 11.3 27.4 0.00 0.00 0.00 23 1010.4
20170328210715 25 47 11.3 27.4 0.00 0.00 0.00 23 1010.4
20170328210411 25 99 11.3 17.7 0.00 0.00 0.00 24 1010.5
20170328205934 24 25 9.7 16.1 0.00 0.00 0.00 25 1010.4
20170328205809 24 25 9.7 16.1 0.00 0.00 0.00 25 1010.4
20170328205604 24 24 11.3 16.1 0.00 0.00 0.00 24 1010.4
20170328205507 24 24 11.3 16.1 0.00 0.00 0.00 24 1010.4
20170328205319 24 322 8.0 27.4 0.00 0.00 0.00 24 1010.6